Orbital Elements at Epoch 2459200.5 (2020-Dec-17.0) TDB
Reference: JPL 18 (heliocentric ecliptic J2000)
Element | Value | Uncertainty (1-sigma) | Units |
e | .08929696836993453 | 6.6026e-08 | |
a | 1.926356113366654 | 1.0469e-08 | au |
q | 1.754338352442122 | 1.275e-07 | au |
i | 23.4228322670572 | 5.3916e-06 | deg |
node | 63.15235572136399 | 1.8133e-05 | deg |
peri | 265.6070726621254 | 5.1106e-05 | deg |
M | 287.9146991756338 | 5.7547e-05 | deg |
tp | 2459396.045355179289 (2021-Jun-30.54535518) | 0.00015701 | TDB |
period | 976.5698007706544 2.67 | 7.9609e-06 2.18e-08 | d yr |
n | .368637244071963 | 3.0051e-09 | deg/d |
Q | 2.098373874291186 | 1.1404e-08 | au |
|
| | Orbit Determination Parameters
Additional Information
|